Location: Laterina
(43.5167°N, 11.7167°E)
Time: 17:09:36
(UTC+00:00)

CENTAUR R/B - Pass Details

Date: 24 September 2020
Orbit: 755 x 1433 km, 63.4° (Epoch: 02 October)

Event Time Altitude Azimuth Distance (km) Brightness Sun altitude
Rises 18:16:37 0° 323° (NW) 4,146 6.6 -13.5°
Reaches altitude 10° 18:19:17 10° 325° (NW) 3,261 5.9 -14.0°
Maximum altitude 18:27:25 76° 52° (NE) 1,421 3.2 -15.4°
Enters shadow 18:34:47 16° 136° (SE) 3,061 4.6 -16.7°
